This is the latest recevied weather packets stored in our database for station/object SQ6RR-12. If no packets are shown the sender has not sent any weather packets the latest 10 day(s).
| Time | Temp. | Humidity | Pressure | Rain* | Wind** | Luminosity | Snow |
|---|---|---|---|---|---|---|---|
| 1777579493 | 3.89° C | 10% | 1029.9 hPa | 0 mm | - | - | - |
| 1777579243 | 3.89° C | 10% | 1029.9 hPa | 0 mm | - | - | - |
| 1777578970 | 4.44° C | 93% | 1029.9 hPa | 0 mm | - | - | - |
| 1777578688 | 4.44° C | 93% | 1029.9 hPa | 0 mm | - | - | - |
| 1777578426 | 4.44° C | 92% | 1029.9 hPa | 0 mm | - | - | - |
| 1777578156 | 3.89° C | 92% | 1029.8 hPa | 0 mm | - | - | - |
| 1777577867 | 4.44° C | 92% | 1029.9 hPa | 0 mm | - | - | - |
| 1777577613 | 4.44° C | 88% | 1029.9 hPa | 0 mm | - | - | - |
| 1777577342 | 4.44° C | 86% | 1029.8 hPa | 0 mm | - | - | - |
| 1777577065 | 5° C | 82% | 1029.8 hPa | 0 mm | - | - | - |
| 1777576818 | 5° C | 79% | 1029.8 hPa | 0 mm | - | - | - |
| 1777576518 | 5.56° C | 78% | 1029.8 hPa | 0 mm | - | - | - |
| 1777576255 | 6.11° C | 73% | 1029.7 hPa | 0 mm | - | - | - |
| 1777575986 | 6.67° C | 71% | 1029.7 hPa | 0 mm | - | - | - |
| 1777575691 | 6.67° C | 70% | 1029.6 hPa | 0 mm | - | - | - |
| 1777575423 | 6.67° C | 64% | 1029.6 hPa | 0 mm | - | - | - |
| 1777575148 | 7.22° C | 63% | 1029.6 hPa | 0 mm | - | - | - |
| 1777574881 | 7.22° C | 62% | 1029.5 hPa | 0 mm | - | - | - |
| 1777574609 | 8.89° C | 56% | 1029.4 hPa | 0 mm | - | - | - |
| 1777574332 | 8.89° C | 54% | 1029.4 hPa | 0 mm | - | - | - |
| 1777574057 | 8.89° C | 54% | 1029.5 hPa | 0 mm | - | - | - |
| 1777573777 | 8.89° C | 52% | 1029.4 hPa | 0 mm | - | - | - |
| 1777573503 | 9.44° C | 52% | 1029.4 hPa | 0 mm | - | - | - |
| 1777573251 | 9.44° C | 50% | 1029.4 hPa | 0 mm | - | - | - |
| 1777572974 | 8.89° C | 50% | 1029.3 hPa | 0 mm | - | - | - |
* Rain latest hour (hover to see other rain measurements)
** Current wind speed in m/s (hover to see current wind gust speed)